User: anonymous   Login
Location: Csohesd
(46.2500°N, 22.6167°E)
Time: 18:15:44
(UTC+00:00)
Language:

SWARM A - Orbit

View from above orbital plane
View from above orbital plane
View from above satellite
View from above satellite

Ground track
Ground track

The orbit data is extracted from the following two-line orbital elements,

1 39452U 13067B   22018.88666218  .00005212  00000-0  10305-3 0  9990
2 39452  87.3596 279.1239 0002362  86.1287 274.0242 15.46835882458829
Epoch (UTC): 18 January 2022 21:16:47
Eccentricity: 0.0002362
inclination: 87.3596°
perigee height: 424 km
apogee height: 427 km
right ascension of ascending node: 279.1239°
argument of perigee: 86.1287°
revolutions per day: 15.46835882
mean anomaly at epoch: 274.0242°
orbit number at epoch: 45882

The dashed part of the orbit path shows where the satellite is in the earth's shadow,  

DLR